Tracking 30143 objects as of 20-Jan-2025
HD Live streaming from Space Station
objects crossing your sky now

CZ-3B DEB

Track CZ-3B DEB now!


NORAD ID: 39337
Int'l Code: 2010-042J
Perigee: 539.7 km
Apogee: 42,989.8 km
Inclination: 24.5 °
Period: 782.8 minutes
Semi major axis: 28135 km
RCS: 0.027 m2 (small)
Launch date: September 4, 2010
Source: People's Republic of China (PRC)
Launch site: Xichang Space Center, China (XSC)

Note: This is SATELLITE DEBRIS
Your satellite tracking list
Your tracking list is empty




NASA's NSSDC Master Catalog

Two Line Element Set (TLE):
1 39337U 10042J   25018.92671097  .00002110  00000-0  26458-1 0  9999
2 39337  24.4975 255.2460 7543786  55.9476 354.0097  1.83956234 73221
Source of the keplerian elements: AFSPC